EW9596 Weather Reports


Display with metric or nautical units.
time (UTC)temp
F
wind
direction
speed
MPH
gust
MPH
rain 1hr
in
rain 24hr
in
rain mn
in
humidity
%
barometer
mb
20260905150543 74 252 5.0 10.0 0.00 0.00 0.00 64 1013.4
20260905150042 74 257 5.0 8.0 0.00 0.00 0.00 67 1013.3
20260905145541 73 283 2.0 7.0 0.00 0.00 0.00 67 1013.4
20260905145040 73 259 2.0 9.0 0.00 0.00 0.00 68 1013.4
20260905144542 73 38 2.0 9.0 0.00 0.00 0.00 68 1013.3
20260905144036 72 17 2.0 8.0 0.00 0.00 0.00 70 1013.3
20260905143536 72 96 2.0 9.0 0.00 0.00 0.00 71 1013.4
20260905143035 71 26 3.0 9.0 0.00 0.00 0.00 74 1013.3
20260905142532 70 71 3.0 9.0 0.00 0.00 0.00 76 1013.3
20260905142030 69 355 3.0 8.0 0.00 0.00 0.00 78 1013.3
20260905141530 69 15 2.0 8.0 0.00 0.00 0.00 80 1013.4
20260905141028 68 50 2.0 9.0 0.00 0.00 0.00 82 1013.4
20260905140527 68 242 1.0 6.0 0.00 0.00 0.00 84 1013.4
20260905140026 68 268 1.0 10.0 0.00 0.00 0.00 87 1013.5
20260905135525 67 267 4.0 10.0 0.00 0.00 0.00 89 1013.4
20260905135024 67 238 0.0 4.0 0.00 0.00 0.00 91 1013.3
20260905134523 66 360 0.0 4.0 0.00 0.00 0.00 91 1013.2
20260905134024 66 24 0.0 6.0 0.00 0.00 0.00 91 1013.3
20260905133522 66 30 2.0 6.0 0.00 0.00 0.00 92 1013.4
20260905133022 66 302 0.0 8.0 0.00 0.00 0.00 92 1013.3
20260905132522 66 17 0.0 2.0 0.00 0.00 0.00 92 1013.4
20260905132022 66 305 0.0 5.0 0.00 0.00 0.00 93 1013.3
20260905131541 65 242 1.0 5.0 0.00 0.00 0.00 93 1013.3
20260905131022 65 336 0.0 0.0 0.00 0.00 0.00 93 1013.3
20260905130521 64 342 0.0 0.0 0.00 0.00 0.00 93 1013.3
20260905130021 64 217 0.0 0.0 0.00 0.00 0.00 93 1013.3
20260905125523 63 152 0.0 0.0 0.00 0.00 0.00 93 1013.4
20260905125021 63 152 0.0 0.0 0.00 0.00 0.00 93 1013.5
20260905124535 62 150 0.0 1.0 0.00 0.00 0.00 93 1013.6
20260905124020 62 152 0.0 5.0 0.00 0.00 0.00 92 1013.7
20260905123520 62 161 1.0 5.0 0.00 0.00 0.00 92 1013.8
20260905123019 61 238 0.0 7.0 0.00 0.00 0.00 92 1013.9
20260905122520 61 229 3.0 7.0 0.00 0.00 0.00 92 1014.0
20260905122018 61 146 1.0 3.0 0.00 0.00 0.00 92 1013.9
20260905121524 61 147 1.0 3.0 0.00 0.00 0.00 92 1013.9
20260905121021 61 225 0.0 4.0 0.00 0.00 0.00 92 1013.8
20260905120520 61 246 2.0 7.0 0.00 0.00 0.00 91 1013.8
20260905120017 61 225 2.0 4.0 0.00 0.00 0.00 91 1013.7
20260905115517 61 252 1.0 3.0 0.00 0.00 0.00 91 1013.7
20260905115019 60 244 0.0 3.0 0.00 0.00 0.00 91 1013.5
20260905114534 60 260 1.0 3.0 0.00 0.00 0.00 91 1013.3
20260905114014 60 251 0.0 3.0 0.00 0.00 0.00 91 1013.1
20260905113514 60 247 0.0 3.0 0.00 0.00 0.00 91 1013.1
20260905113013 60 247 0.0 3.0 0.00 0.00 0.00 91 1013.1
20260905112513 60 229 0.0 0.0 0.00 0.00 0.00 91 1013.2
20260905112016 60 229 0.0 2.0 0.00 0.00 0.00 91 1013.1
20260905111516 59 229 0.0 3.0 0.00 0.00 0.00 90 1013.1
20260905111013 59 234 0.0 3.0 0.00 0.00 0.00 90 1013.2
20260905110512 59 234 0.0 5.0 0.00 0.00 0.00 90 1013.2
20260905110011 59 234 1.0 5.0 0.00 0.00 0.00 90 1013.1
20260905105511 59 287 0.0 0.0 0.00 0.00 0.00 89 1013.1
20260905105011 59 286 0.0 0.0 0.00 0.00 0.00 89 1012.9
20260905104510 59 287 0.0 0.0 0.00 0.00 0.00 89 1012.9
20260905104010 59 287 0.0 0.0 0.00 0.00 0.00 90 1012.6
20260905103512 59 287 0.0 0.0 0.00 0.00 0.00 90 1012.6
20260905103023 59 287 0.0 0.0 0.00 0.00 0.00 89 1012.5
20260905102509 59 287 0.0 0.0 0.00 0.00 0.00 89 1012.4
20260905102007 59 287 0.0 0.0 0.00 0.00 0.00 89 1012.4
20260905101513 59 287 0.0 0.0 0.00 0.00 0.00 89 1012.3
20260905101006 59 287 0.0 0.0 0.00 0.00 0.00 89 1012.3
20260905100506 59 286 0.0 0.0 0.00 0.00 0.00 89 1012.2
20260905100006 59 286 0.0 0.0 0.00 0.00 0.00 89 1012.3
20260905095505 60 287 0.0 0.0 0.00 0.00 0.00 89 1012.2
20260905095005 60 287 0.0 0.0 0.00 0.00 0.00 89 1012.3
20260905094505 60 287 0.0 0.0 0.00 0.00 0.00 89 1012.2
20260905094007 60 287 0.0 0.0 0.00 0.00 0.00 89 1012.0
20260905093504 60 287 0.0 0.0 0.00 0.00 0.00 89 1012.1
20260905093003 60 287 0.0 0.0 0.00 0.00 0.00 89 1012.1
20260905092502 60 287 0.0 0.0 0.00 0.00 0.00 89 1012.1
20260905092003 60 287 0.0 0.0 0.00 0.00 0.00 89 1012.1
20260905091502 60 287 0.0 0.0 0.00 0.00 0.00 89 1012.1
20260905091002 60 287 0.0 0.0 0.00 0.00 0.00 89 1012.1
20260905090501 60 287 0.0 0.0 0.00 0.00 0.00 89 1012.0
20260905090002 60 287 0.0 0.0 0.00 0.00 0.00 89 1012.1
20260905085602 60 287 0.0 0.0 0.00 0.00 0.00 89 1012.1
20260905085102 61 287 0.0 0.0 0.00 0.00 0.00 89 1012.0
20260905084617 61 286 0.0 0.0 0.00 0.00 0.00 89 1012.1
20260905084059 61 287 0.0 0.0 0.00 0.00 0.00 89 1012.1
20260905083559 61 287 0.0 0.0 0.00 0.00 0.00 89 1012.1
20260905083058 61 287 0.0 0.0 0.00 0.00 0.00 89 1012.1
20260905082558 61 287 0.0 0.0 0.00 0.00 0.00 88 1012.1
20260905082057 61 287 0.0 0.0 0.00 0.00 0.00 88 1012.2
20260905081559 61 287 0.0 0.0 0.00 0.00 0.00 88 1012.2
20260905081055 61 287 0.0 0.0 0.00 0.00 0.00 88 1012.2
20260905080555 61 287 0.0 0.0 0.00 0.00 0.00 88 1012.2
20260905080055 61 287 0.0 0.0 0.00 0.00 0.00 88 1012.2
20260905075557 62 286 0.0 0.0 0.00 0.00 0.00 88 1012.2
20260905075054 62 287 0.0 0.0 0.00 0.00 0.00 88 1012.3
20260905074557 62 287 0.0 0.0 0.00 0.00 0.00 88 1012.2
20260905074053 62 289 0.0 0.0 0.00 0.00 0.00 88 1012.2
20260905073555 62 289 0.0 0.0 0.00 0.00 0.00 88 1012.1
20260905073053 62 289 0.0 0.0 0.00 0.00 0.00 88 1012.2
20260905072556 62 290 0.0 0.0 0.00 0.00 0.00 88 1012.3
20260905072054 62 178 0.0 0.0 0.00 0.00 0.00 88 1012.2
20260905071557 62 178 0.0 0.0 0.00 0.00 0.00 87 1012.3
20260905071049 62 178 0.0 0.0 0.00 0.00 0.00 87 1012.4
20260905070550 62 178 0.0 0.0 0.00 0.00 0.00 87 1012.4
20260905070152 62 178 0.0 0.0 0.00 0.00 0.00 87 1012.4
20260905065548 62 178 0.0 0.0 0.00 0.00 0.00 87 1012.4
20260905065048 62 174 0.0 0.0 0.00 0.00 0.00 87 1012.5
20260905064548 62 175 0.0 0.0 0.00 0.00 0.00 87 1012.5
20260905064049 62 173 0.0 0.0 0.00 0.00 0.00 86 1012.5
20260905063546 63 173 0.0 0.0 0.00 0.00 0.00 86 1012.6
20260905063051 63 173 0.0 0.0 0.00 0.00 0.00 86 1012.6
20260905062546 63 173 0.0 0.0 0.00 0.00 0.00 86 1012.6
20260905062045 63 173 0.0 0.0 0.00 0.00 0.00 86 1012.7
20260905061547 63 173 0.0 0.0 0.00 0.00 0.00 86 1012.7
20260905061049 63 173 0.0 0.0 0.00 0.00 0.00 86 1012.8
20260905060544 63 173 0.0 0.0 0.00 0.00 0.00 85 1012.7
20260905060043 63 173 0.0 0.0 0.00 0.00 0.00 85 1012.8
20260905055542 63 173 0.0 0.0 0.00 0.00 0.00 85 1012.8
20260905055042 63 206 0.0 0.0 0.00 0.00 0.00 84 1012.8
20260905054542 63 209 0.0 0.0 0.00 0.00 0.00 84 1012.9
20260905054041 63 209 0.0 0.0 0.00 0.00 0.00 84 1012.8
20260905053540 63 209 0.0 0.0 0.00 0.00 0.00 84 1012.9
20260905053040 64 209 0.0 0.0 0.00 0.00 0.00 83 1012.9
20260905052539 64 209 0.0 0.0 0.00 0.00 0.00 83 1012.9
20260905052038 64 209 0.0 0.0 0.00 0.00 0.00 83 1012.9
20260905051539 64 209 0.0 0.0 0.00 0.00 0.00 83 1013.0
20260905051037 64 209 0.0 0.0 0.00 0.00 0.00 83 1013.0
20260905050538 64 209 0.0 0.0 0.00 0.00 0.00 82 1013.1
20260905050036 65 209 0.0 0.0 0.00 0.00 0.00 82 1013.0
20260905045535 65 209 0.0 0.0 0.00 0.13 0.00 82 1013.1
20260905045036 65 209 0.0 0.0 0.00 0.13 0.00 82 1013.1
20260905044535 65 209 0.0 0.0 0.00 0.13 0.00 82 1013.1
20260905044037 65 209 0.0 0.0 0.00 0.13 0.00 82 1013.1
20260905043532 66 209 0.0 0.0 0.00 0.13 0.00 82 1013.1
20260905043031 66 209 0.0 0.0 0.00 0.13 0.00 81 1013.1
20260905042532 66 209 0.0 0.0 0.00 0.13 0.00 82 1013.2
20260905042029 66 209 0.0 0.0 0.00 0.13 0.00 82 1013.1
20260905041528 66 209 0.0 0.0 0.00 0.13 0.00 81 1013.0
20260905041029 67 209 0.0 0.0 0.00 0.13 0.00 81 1013.1
20260905040527 67 209 0.0 0.0 0.00 0.13 0.00 82 1013.0
20260905040027 67 209 0.0 0.0 0.00 0.13 0.00 82 1013.0
20260905035527 67 209 0.0 0.0 0.00 0.83 0.13 81 1013.0
20260905035026 67 209 0.0 0.0 0.00 0.83 0.13 81 1012.9
20260905034529 67 209 0.0 0.0 0.00 0.83 0.13 81 1012.9
20260905034025 67 209 0.0 0.0 0.00 0.83 0.13 81 1012.9
20260905033525 67 209 0.0 0.0 0.00 0.83 0.13 81 1013.0
20260905033025 68 209 0.0 0.0 0.00 0.83 0.13 81 1012.9
20260905032524 68 209 0.0 0.0 0.00 0.83 0.13 81 1012.9
20260905032024 68 209 0.0 0.0 0.00 0.83 0.13 81 1012.9
20260905031532 68 209 0.0 0.0 0.00 0.83 0.13 81 1012.8
20260905031023 68 209 0.0 0.0 0.00 0.83 0.13 81 1012.9
20260905030524 68 209 0.0 0.0 0.00 0.83 0.13 81 1012.9
20260905030031 69 209 0.0 0.0 0.00 0.83 0.13 81 1012.9
20260905025523 69 209 0.0 0.0 0.00 0.84 0.13 81 1012.9
20260905025024 69 209 0.0 0.0 0.00 0.84 0.13 81 1012.8
20260905024524 69 209 0.0 0.0 0.00 0.84 0.13 81 1012.8
20260905024023 69 209 0.0 0.0 0.00 0.84 0.13 81 1012.8
20260905023524 69 209 0.0 0.0 0.00 0.84 0.13 81 1012.8
20260905023030 69 209 0.0 0.0 0.00 0.84 0.13 81 1012.9
20260905022523 69 209 0.0 0.0 0.00 0.84 0.13 81 1012.8
20260905022022 69 209 0.0 0.0 0.00 0.84 0.13 82 1012.8
20260905021524 69 209 0.0 0.0 0.00 0.84 0.13 81 1012.9
20260905021022 69 209 0.0 0.0 0.00 0.84 0.13 81 1012.9
20260905020523 69 209 0.0 0.0 0.00 0.84 0.13 81 1012.9
20260905020022 69 209 0.0 0.0 0.00 0.84 0.13 81 1012.9
20260905015522 70 209 0.0 0.0 0.00 0.84 0.13 81 1013.0
20260905015024 70 209 0.0 0.0 0.00 0.84 0.13 81 1013.0
20260905014522 70 209 0.0 0.0 0.00 0.84 0.13 81 1013.1
20260905014021 70 209 0.0 0.0 0.00 0.84 0.13 81 1013.1
20260905013522 70 209 0.0 0.0 0.00 0.84 0.13 81 1013.2
20260905013021 70 209 0.0 0.0 0.00 0.84 0.13 81 1013.2
20260905012521 70 209 0.0 0.0 0.00 0.84 0.13 81 1013.1
20260905012021 70 209 0.0 0.0 0.00 0.84 0.13 80 1013.1
20260905011521 70 209 0.0 0.0 0.00 0.84 0.13 80 1013.1
20260905011023 70 209 0.0 0.0 0.00 0.84 0.13 80 1013.0
20260905010521 70 209 0.0 0.0 0.00 0.84 0.13 80 1013.0
20260905010020 70 209 0.0 0.0 0.00 0.84 0.13 79 1012.9
20260905005523 70 209 0.0 0.0 0.00 0.84 0.13 79 1012.8
20260905005024 70 209 0.0 0.0 0.00 0.84 0.13 79 1012.9
20260905004520 71 209 0.0 0.0 0.00 0.84 0.13 79 1012.8
20260905004020 71 209 0.0 0.0 0.00 0.84 0.13 78 1012.7
20260905003520 71 209 0.0 0.0 0.00 0.84 0.13 78 1012.7
20260905003020 71 209 0.0 0.0 0.00 0.84 0.13 77 1012.6
20260905002521 71 209 0.0 0.0 0.00 0.84 0.13 77 1012.6
20260905002019 71 209 0.0 0.0 0.00 0.84 0.13 77 1012.7
20260905001519 71 209 0.0 0.0 0.00 0.84 0.13 76 1012.5
20260905001019 72 209 0.0 0.0 0.00 0.84 0.13 76 1012.4
20260905000520 72 209 0.0 0.0 0.00 0.84 0.13 75 1012.4
20260905000019 72 209 0.0 0.0 0.00 0.84 0.13 75 1012.3
20260904235518 72 209 0.0 0.0 0.00 0.84 0.13 74 1012.3
20260904235023 73 209 0.0 0.0 0.00 0.84 0.13 74 1012.4
20260904234533 73 209 0.0 0.0 0.00 0.84 0.13 73 1012.3
20260904234020 73 209 0.0 0.0 0.00 0.84 0.13 73 1012.3
20260904233518 74 209 0.0 0.0 0.00 0.84 0.13 72 1012.2
20260904233018 74 209 0.0 0.0 0.00 0.84 0.13 72 1012.2
20260904232518 74 209 0.0 0.0 0.00 0.84 0.13 72 1012.2
20260904232017 75 209 0.0 0.0 0.00 0.84 0.13 71 1012.2
20260904231518 75 209 0.0 0.0 0.00 0.84 0.13 71 1012.3
20260904231017 75 209 0.0 0.0 0.00 0.84 0.13 70 1012.4
20260904230516 76 209 0.0 0.0 0.00 0.84 0.13 70 1012.2
20260904230017 76 209 0.0 0.0 0.00 0.84 0.13 69 1012.1
20260904225520 76 209 0.0 0.0 0.00 0.84 0.13 69 1012.1
20260904225017 77 209 0.0 0.0 0.00 0.84 0.13 68 1012.2
20260904224526 77 209 0.0 0.0 0.00 0.84 0.13 67 1012.1
20260904224015 78 209 0.0 0.0 0.00 0.84 0.13 66 1012.2
20260904223515 78 209 0.0 0.0 0.00 0.84 0.13 66 1012.2
20260904223015 78 210 0.0 2.0 0.00 0.84 0.13 65 1012.1
20260904222514 78 210 0.0 2.0 0.00 0.84 0.13 64 1012.2
20260904222014 79 210 0.0 2.0 0.00 0.84 0.13 64 1012.0
20260904221514 79 248 0.0 5.0 0.00 0.84 0.13 63 1012.1
20260904221014 79 248 2.0 5.0 0.00 0.84 0.13 61 1012.1
20260904220514 79 221 2.0 6.0 0.00 0.84 0.13 61 1012.0
20260904220113 80 272 1.0 4.0 0.00 0.84 0.13 64 1012.0
20260904215512 80 245 0.0 6.0 0.00 0.84 0.13 61 1011.9
20260904215012 80 233 2.0 6.0 0.00 0.84 0.13 60 1012.0
20260904214533 80 275 0.0 4.0 0.00 0.84 0.13 60 1011.9
20260904214014 80 230 0.0 6.0 0.00 0.84 0.13 59 1012.0
20260904213512 80 306 0.0 6.0 0.00 0.84 0.13 59 1012.0
20260904213012 80 256 3.0 6.0 0.00 0.84 0.13 59 1012.0
20260904212512 80 246 1.0 7.0 0.00 0.84 0.13 61 1012.0
20260904212014 80 246 3.0 7.0 0.00 0.84 0.13 60 1012.0
20260904211513 80 228 1.0 4.0 0.00 0.84 0.13 61 1012.1
20260904211011 80 242 0.0 3.0 0.00 0.84 0.13 62 1012.1
20260904210511 80 211 0.0 3.0 0.00 0.84 0.13 62 1012.2
20260904210011 80 246 1.0 4.0 0.00 0.84 0.13 60 1012.2
20260904205511 80 246 2.0 4.0 0.00 0.84 0.13 60 1012.3
20260904205012 80 246 1.0 3.0 0.00 0.84 0.13 59 1012.3
20260904204510 80 238 0.0 8.0 0.00 0.84 0.13 58 1012.3
20260904204011 80 237 1.0 8.0 0.00 0.84 0.13 58 1012.4
20260904203510 81 248 2.0 9.0 0.00 0.84 0.13 58 1012.4
20260904203010 81 240 1.0 8.0 0.00 0.84 0.13 57 1012.4
20260904202509 81 252 2.0 7.0 0.00 0.84 0.13 58 1012.4
20260904202014 80 268 1.0 4.0 0.00 0.84 0.13 60 1012.4
20260904201509 80 264 1.0 4.0 0.00 0.84 0.13 58 1012.4
20260904201009 80 265 0.0 8.0 0.00 0.84 0.13 58 1012.5
20260904200508 80 233 1.0 8.0 0.00 0.84 0.13 58 1012.6
20260904200022 81 338 3.0 8.0 0.00 0.84 0.13 56 1012.7
20260904195512 81 268 3.0 9.0 0.00 0.84 0.13 58 1012.7
20260904195009 81 263 3.0 9.0 0.00 0.84 0.13 56 1012.7
20260904194509 81 290 0.0 7.0 0.00 0.84 0.13 57 1012.8
20260904194008 81 263 2.0 7.0 0.00 0.84 0.13 57 1012.9
20260904193509 81 330 2.0 7.0 0.00 0.84 0.13 57 1012.9
20260904193008 81 254 3.0 7.0 0.00 0.84 0.13 58 1013.0
20260904192511 81 28 1.0 8.0 0.00 0.84 0.13 57 1012.9
20260904192007 81 350 1.0 9.0 0.00 0.84 0.13 56 1013.0
20260904191509 82 251 5.0 9.0 0.00 0.84 0.13 55 1013.0
20260904191007 82 5 3.0 12.0 0.00 0.84 0.13 55 1012.9
20260904190507 81 220 4.0 14.0 0.00 0.84 0.13 54 1012.9
20260904190006 82 269 5.0 14.0 0.00 0.84 0.13 54 1013.0
20260904185507 82 266 7.0 14.0 0.00 0.84 0.13 54 1013.1
20260904185005 81 242 3.0 9.0 0.00 0.84 0.13 56 1013.1
20260904184512 81 29 2.0 8.0 0.00 0.84 0.13 57 1013.1
20260904184004 81 328 0.0 10.0 0.00 0.84 0.13 57 1013.2
20260904183504 81 21 3.0 10.0 0.00 0.84 0.13 56 1013.2
20260904183003 81 310 4.0 10.0 0.00 0.84 0.13 56 1013.2
20260904182506 81 259 4.0 10.0 0.00 0.84 0.13 54 1013.3
20260904182001 81 265 0.0 10.0 0.00 0.84 0.13 56 1013.3
20260904181501 81 337 2.0 10.0 0.00 0.84 0.13 56 1013.4
20260904181100 80 31 2.0 9.0 0.00 0.84 0.13 57 1013.4
20260904180603 80 11 1.0 9.0 0.00 0.84 0.13 59 1013.5
20260904180107 80 212 3.0 9.0 0.00 0.84 0.13 59 1013.6
20260904175557 80 261 1.0 9.0 0.00 0.84 0.13 60 1013.6
20260904175056 79 5 3.0 9.0 0.00 0.84 0.13 59 1013.7
20260904174557 79 253 2.0 12.0 0.00 0.84 0.13 58 1013.9
20260904174054 79 313 3.0 8.0 0.00 0.84 0.13 61 1013.9
20260904173554 78 290 3.0 6.0 0.00 0.84 0.13 62 1013.7
20260904173059 78 240 2.0 13.0 0.00 0.84 0.13 63 1013.7
20260904172554 78 262 2.0 13.0 0.00 0.84 0.13 62 1013.8
20260904172054 78 300 3.0 9.0 0.00 0.84 0.13 62 1013.8
20260904171559 78 355 1.0 7.0 0.00 0.84 0.13 62 1013.9
20260904171052 78 294 0.0 10.0 0.00 0.84 0.13 64 1014.0
20260904170554 78 218 4.0 10.0 0.00 0.84 0.13 63 1014.0
20260904170054 78 260 4.0 8.0 0.00 0.84 0.13 63 1014.0
20260904165552 78 11 3.0 12.0 0.00 0.84 0.13 62 1014.1
20260904165053 79 318 4.0 12.0 0.00 0.84 0.13 63 1014.0
20260904164553 79 206 0.0 9.0 0.00 0.84 0.13 64 1013.9
20260904164053 79 240 2.0 9.0 0.00 0.84 0.13 63 1013.9
20260904163551 79 244 4.0 9.0 0.00 0.84 0.13 62 1013.8
20260904163058 79 346 2.0 7.0 0.00 0.84 0.13 65 1013.9
20260904162549 78 218 2.0 8.0 0.00 0.84 0.13 65 1014.0
20260904162042 78 277 2.0 8.0 0.00 0.84 0.13 66 1014.2
20260904161542 78 249 2.0 7.0 0.00 0.84 0.13 66 1014.1
20260904161042 78 244 3.0 7.0 0.00 0.84 0.13 66 1014.1
20260904160542 78 14 0.0 3.0 0.00 0.84 0.13 66 1014.1
20260904160043 78 345 0.0 6.0 0.00 0.84 0.13 65 1014.2
20260904155541 78 344 1.0 6.0 0.00 0.84 0.13 66 1014.1
20260904155041 78 271 1.0 7.0 0.00 0.84 0.13 67 1014.2
20260904154541 78 324 0.0 4.0 0.00 0.84 0.13 68 1014.1
20260904154040 78 355 1.0 10.0 0.00 0.84 0.13 67 1014.0
20260904153539 78 289 2.0 10.0 0.00 0.84 0.13 68 1014.0
20260904153048 77 271 3.0 5.0 0.00 0.84 0.13 68 1014.1
20260904152537 77 263 2.0 7.0 0.00 0.84 0.13 71 1014.2
20260904152039 76 285 3.0 7.0 0.00 0.84 0.13 70 1014.2
20260904151536 76 259 1.0 7.0 0.00 0.84 0.13 70 1014.1
20260904151036 76 226 2.0 7.0 0.00 0.84 0.13 70 1014.1